Weather History for KRCA - July, 2013

Change the Weather History Date:

Monday, July 22, 2013

  Actual Average Record
Temperature  
Mean Temperature 75 °F -  
Max Temperature 89 °F 85 °F 102 °F (2007)
Min Temperature 61 °F 60 °F 50 °F (2000)
Cooling Degree Days 10    
Growing Degree Days 25 (Base 50)    
Moisture  
Dew Point 56 °F    
Average Humidity 53    
Maximum Humidity 90    
Minimum Humidity 25    
Precipitation  
Precipitation 0.00 in - - ()
Sea Level Pressure  
Sea Level Pressure 29.89 in    
Wind  
Wind Speed 11 mph (East)    
Max Wind Speed 30 mph    
Max Gust Speed 32 mph    
Visibility 10 miles    
Events Rain , Thunderstorm    
Averages and records for this station are not official NWS values.
T = Trace of Precipitation, MM = Missing Value Source: NWS Daily Summary

Daily Weather History Graph

Daily Weather History Graph

Search for Another Location

Airport or City:

Trip Planner

Search our weather history database for the weather conditions in past years. The results will help you decide how hot, cold, wet, or windy it might be!

Date:

Astronomy

Jul. 22, 2013 Rise Set
Actual Time 5:29 AM MDT 8:27 PM MDT
Civil Twilight 4:55 AM MDT 9:01 PM MDT
Nautical Twilight 4:11 AM MDT 9:44 PM MDT
Astronomical Twilight 3:20 AM MDT 10:36 PM MDT
Moon 8:11 PM MDT 5:31 AM MDT
Length of Visible Light 16h 05m
Length of Day
14h 57m
Full, 100% of the Moon is Illuminated
Jul 22
Full
Jul 22
Full
Jul 29
Last Quarter
Aug 6
New
Aug 14
First Quarter

Hourly Weather History & Observations

Time (MDT) Temp. Dew Point Humidity Pressure Visibility Wind Dir Wind Speed Gust Speed Precip Events Conditions
12:58 AM 73.4 °F 58.6 °F 60% 29.83 in 10.0 mi NNW 15.0 mph - N/A   Clear
1:58 AM 70.0 °F 61.0 °F 73% 29.84 in 10.0 mi NNW 12.7 mph - N/A   Clear
2:58 AM 68.0 °F 62.4 °F 82% 29.85 in 10.0 mi North 8.1 mph - N/A   Clear
3:58 AM 66.0 °F 60.8 °F 83% 29.85 in 10.0 mi NNW 6.9 mph - N/A   Clear
4:58 AM 61.9 °F 59.0 °F 90% 29.86 in 10.0 mi NW 8.1 mph - N/A   Clear
5:58 AM 63.0 °F 58.8 °F 86% 29.86 in 10.0 mi NNW 4.6 mph - N/A   Clear
6:58 AM 65.7 °F 60.3 °F 83% 29.86 in 10.0 mi NNW 5.8 mph - N/A   Clear
7:58 AM 69.6 °F 58.6 °F 68% 29.88 in 10.0 mi North 2.3 mph - N/A   Clear
8:58 AM 73.0 °F 56.7 °F 56% 29.90 in 10.0 mi NNE 2.3 mph - N/A   Clear
9:58 AM 76.5 °F 53.4 °F 45% 29.90 in 10.0 mi Variable 3.5 mph - N/A   Clear
10:58 AM 79.5 °F 54.3 °F 42% 29.89 in 10.0 mi SE 8.1 mph - N/A   Clear
11:58 AM 81.9 °F 49.1 °F 32% 29.89 in 10.0 mi East 6.9 mph - N/A   Partly Cloudy
12:58 PM 84.2 °F 52.0 °F 33% 29.87 in 10.0 mi South 8.1 mph 17.3 mph N/A   Clear
1:58 PM 86.7 °F 51.1 °F 29% 29.86 in 10.0 mi South 11.5 mph - N/A   Partly Cloudy
2:58 PM 88.5 °F 49.5 °F 26% 29.85 in 10.0 mi South 11.5 mph - N/A   Clear
3:34 PM 87.8 °F 50.0 °F 27% 29.93 in 10.0 mi SSE 15.0 mph 23.0 mph N/A   Clear
3:58 PM 89.1 °F 49.1 °F 25% 29.84 in 10.0 mi SSE 15.0 mph 26.5 mph N/A   Clear
4:26 PM 89.6 °F 50.0 °F 26% 29.91 in 10.0 mi SE 12.7 mph - N/A   Clear
4:58 PM 89.4 °F 50.4 °F 26% 29.82 in 10.0 mi SSE 9.2 mph 25.3 mph N/A   Clear
5:58 PM 84.7 °F 48.7 °F 29% 29.82 in 10.0 mi SE 12.7 mph - N/A   Partly Cloudy
6:58 PM 83.3 °F 48.4 °F 30% 29.87 in 10.0 mi North 4.6 mph - N/A Thunderstorm Overcast
7:09 PM 84.2 °F 48.2 °F 29% 29.96 in 10.0 mi NW 10.4 mph - N/A Rain , Thunderstorm Light Rain
7:32 PM 73.4 °F 57.2 °F 57% 29.98 in 10.0 mi North 15.0 mph 25.3 mph N/A Rain , Thunderstorm Light Rain
7:36 PM 75.2 °F 57.2 °F 53% 29.96 in 10.0 mi NE 12.7 mph - N/A Rain , Thunderstorm Light Rain
7:40 PM 75.2 °F 57.2 °F 53% 29.95 in 10.0 mi NE 16.1 mph - N/A Rain , Thunderstorm Light Rain
7:58 PM 74.7 °F 59.0 °F 58% 29.90 in 10.0 mi NNE 15.0 mph - 0.00 in Rain Light Rain
8:00 PM 73.4 °F 59.0 °F 61% 29.97 in 10.0 mi NE 16.1 mph - N/A   Overcast
8:21 PM 75.2 °F 59.0 °F 57% 29.96 in 10.0 mi ESE 12.7 mph - N/A   Light Drizzle
8:22 PM 75.2 °F 59.0 °F 57% 29.95 in 10.0 mi SE 12.7 mph - N/A Rain , Thunderstorm Light Thunderstorms and Rain
8:33 PM 73.4 °F 59.0 °F 61% 29.90 in 10.0 mi SE 29.9 mph 31.1 mph N/A Thunderstorm Thunderstorm
8:37 PM 73.4 °F 59.0 °F 61% 29.86 in 10.0 mi SE 25.3 mph 32.2 mph N/A   Overcast
8:39 PM 73.4 °F 59.0 °F 61% 29.87 in 10.0 mi ESE 25.3 mph 32.2 mph N/A Rain Light Rain
8:52 PM 73.4 °F 57.2 °F 57% 29.93 in 10.0 mi ESE 11.5 mph - N/A   Overcast
8:58 PM 73.4 °F 57.9 °F 58% 29.86 in 10.0 mi SE 16.1 mph - 0.00 in   Overcast
9:18 PM 73.4 °F 57.2 °F 57% 29.89 in 10.0 mi SE 20.7 mph 27.6 mph N/A Rain Light Rain
9:33 PM 71.6 °F 57.2 °F 60% 29.87 in 10.0 mi SSE 16.1 mph - N/A   Mostly Cloudy
9:58 PM 71.6 °F 57.2 °F 60% 29.82 in 10.0 mi SW 15.0 mph - 0.00 in   Partly Cloudy
10:58 PM 71.4 °F 55.9 °F 58% 29.86 in 10.0 mi SSW 15.0 mph - N/A   Mostly Cloudy
11:58 PM 71.6 °F 56.3 °F 58% 29.86 in 10.0 mi SSW 11.5 mph - N/A   Overcast